Location: Geography Hall
(41.1195°N, 80.5706°W)
Time: 22:57:41
(UTC+00:00)

USA 307 - Pass Details

Date: 29 October 2020
Orbit: 569 x 579 km, 54.0° (Epoch: 30 November)

Event Time Altitude Azimuth Distance (km) Brightness Sun altitude
Rises 23:26:01 0° 313° (NW) 2,789 7.0 -12.8°
Reaches altitude 10° 23:28:25 10° 322° (NW) 1,886 6.0 -13.2°
Maximum altitude 23:32:24 36° 30° (NNE) 910 3.6 -14.0°
Enters shadow 23:34:17 24° 79° (E) 1,196 3.9 -14.3°
